| time (UTC) | temp C | wind direction | speed KPH | gust KPH | rain 1hr cm | rain 24hr cm | rain mn cm | humidity % | barometer mb |
| 20260510080011 | 10 | 290 | 0.0 | 3.2 | 0.00 | 0.13 | 0.00 | 95 | 1013.0 |
| 20260510074512 | 10 | 168 | 0.0 | 4.8 | 0.00 | 0.13 | 0.00 | 95 | 1013.1 |
| 20260510073013 | 10 | 313 | 4.8 | 8.0 | 0.00 | 0.13 | 0.00 | 95 | 1013.4 |
| 20260510071513 | 9 | 200 | 0.0 | 0.0 | 0.00 | 0.13 | 0.00 | 95 | 1012.4 |
| 20260510070013 | 9 | 200 | 0.0 | 0.0 | 0.00 | 0.13 | 0.00 | 95 | 1012.4 |
| 20260510064514 | 9 | 200 | 0.0 | 0.0 | 0.00 | 0.13 | 0.00 | 95 | 1012.5 |
| 20260510063014 | 9 | 163 | 0.0 | 0.0 | 0.00 | 0.13 | 0.00 | 95 | 1012.5 |
| 20260510061516 | 8 | 46 | 0.0 | 0.0 | 0.00 | 0.13 | 0.00 | 95 | 1012.9 |
| 20260510060032 | 8 | 46 | 0.0 | 0.0 | 0.00 | 0.13 | 0.00 | 95 | 1012.4 |
| 20260510054518 | 8 | 46 | 0.0 | 0.0 | 0.00 | 0.13 | 0.00 | 95 | 1012.2 |
| 20260510053016 | 8 | 46 | 0.0 | 0.0 | 0.00 | 0.13 | 0.00 | 95 | 1012.4 |
| 20260510051516 | 7 | 46 | 0.0 | 0.0 | 0.00 | 0.13 | 0.00 | 95 | 1012.5 |
| 20260510050016 | 7 | 46 | 0.0 | 0.0 | 0.00 | 0.13 | 0.00 | 94 | 1012.4 |
| 20260510044515 | 7 | 46 | 0.0 | 0.0 | 0.00 | 0.13 | 0.00 | 94 | 1012.4 |
| 20260510043016 | 7 | 46 | 0.0 | 0.0 | 0.00 | 0.13 | 0.00 | 94 | 1012.5 |
| 20260510041517 | 7 | 46 | 0.0 | 0.0 | 0.00 | 0.13 | 0.00 | 94 | 1012.5 |
| 20260510040014 | 8 | 46 | 0.0 | 0.0 | 0.00 | 0.13 | 0.00 | 94 | 1012.7 |
| 20260510034512 | 8 | 46 | 0.0 | 0.0 | 0.00 | 0.13 | 0.13 | 94 | 1012.7 |
| 20260510033012 | 8 | 46 | 0.0 | 0.0 | 0.00 | 0.13 | 0.13 | 94 | 1012.6 |
| 20260510031514 | 8 | 46 | 0.0 | 0.0 | 0.00 | 0.13 | 0.13 | 94 | 1012.7 |
| 20260510030016 | 8 | 46 | 0.0 | 0.0 | 0.00 | 0.13 | 0.13 | 94 | 1012.5 |
| 20260510024522 | 8 | 46 | 0.0 | 0.0 | 0.00 | 0.13 | 0.13 | 93 | 1012.5 |
| 20260510023016 | 9 | 46 | 0.0 | 0.0 | 0.00 | 0.13 | 0.13 | 93 | 1012.5 |
| 20260510021516 | 10 | 46 | 0.0 | 0.0 | 0.00 | 0.13 | 0.13 | 93 | 1012.3 |
| 20260510020020 | 10 | 46 | 0.0 | 0.0 | 0.00 | 0.13 | 0.13 | 93 | 1012.3 |
| 20260510014521 | 10 | 46 | 0.0 | 0.0 | 0.00 | 0.13 | 0.13 | 92 | 1012.1 |
| 20260510013020 | 10 | 46 | 0.0 | 0.0 | 0.00 | 0.13 | 0.13 | 92 | 1012.2 |
| 20260510011522 | 11 | 96 | 0.0 | 3.2 | 0.00 | 0.13 | 0.13 | 91 | 1012.1 |
| 20260510010001 | 12 | 96 | 0.0 | 4.8 | 0.00 | 0.13 | 0.13 | 91 | 1011.8 |
| 20260510004504 | 12 | 92 | 0.0 | 3.2 | 0.00 | 0.13 | 0.13 | 91 | 1011.7 |
| 20260510003004 | 12 | 28 | 1.6 | 3.2 | 0.00 | 0.13 | 0.13 | 92 | 1011.5 |
| 20260510001504 | 12 | 34 | 0.0 | 3.2 | 0.00 | 0.13 | 0.13 | 89 | 1011.4 |
| 20260510000004 | 13 | 93 | 0.0 | 4.8 | 0.00 | 0.13 | 0.13 | 88 | 1011.2 |
| 20260509234507 | 14 | 139 | 1.6 | 6.4 | 0.00 | 0.13 | 0.13 | 86 | 1011.3 |
| 20260509233004 | 15 | 85 | 0.0 | 4.8 | 0.00 | 0.13 | 0.13 | 85 | 1011.3 |
| 20260509231508 | 15 | 152 | 0.0 | 4.8 | 0.00 | 0.13 | 0.13 | 84 | 1011.4 |
| 20260509230008 | 15 | 139 | 1.6 | 6.4 | 0.00 | 0.13 | 0.13 | 83 | 1011.3 |
| 20260509224512 | 15 | 171 | 1.6 | 4.8 | 0.00 | 0.13 | 0.13 | 82 | 1011.1 |
| 20260509223016 | 15 | 146 | 1.6 | 4.8 | 0.00 | 0.13 | 0.13 | 82 | 1011.1 |
| 20260509221512 | 15 | 78 | 0.0 | 3.2 | 0.00 | 0.13 | 0.13 | 81 | 1011.2 |
| 20260509220017 | 15 | 109 | 0.0 | 3.2 | 0.00 | 0.13 | 0.13 | 84 | 1011.3 |
| 20260509214515 | 15 | 112 | 3.2 | 3.2 | 0.00 | 0.13 | 0.13 | 86 | 1011.2 |
| 20260509213016 | 15 | 130 | 3.2 | 6.4 | 0.00 | 0.13 | 0.13 | 84 | 1011.1 |
| 20260509211519 | 15 | 360 | 0.0 | 3.2 | 0.00 | 0.13 | 0.13 | 81 | 1011.3 |
| 20260509210020 | 15 | 277 | 1.6 | 3.2 | 0.00 | 0.13 | 0.13 | 78 | 1011.4 |
| 20260509204521 | 15 | 311 | 1.6 | 3.2 | 0.00 | 0.13 | 0.13 | 81 | 1011.5 |
| 20260509203024 | 15 | 129 | 0.0 | 1.6 | 0.00 | 0.13 | 0.13 | 83 | 1011.5 |
| 20260509201524 | 14 | 142 | 0.0 | 3.2 | 0.03 | 0.13 | 0.13 | 84 | 1011.7 |
| 20260509200024 | 13 | 109 | 0.0 | 3.2 | 0.03 | 0.13 | 0.13 | 85 | 1011.8 |
| 20260509194525 | 13 | 62 | 1.6 | 3.2 | 0.03 | 0.13 | 0.13 | 87 | 1011.9 |
| 20260509193023 | 13 | 114 | 0.0 | 3.2 | 0.03 | 0.13 | 0.13 | 86 | 1012.1 |
| 20260509191525 | 13 | 100 | 0.0 | 3.2 | 0.03 | 0.10 | 0.10 | 84 | 1012.2 |
| 20260509190028 | 13 | 343 | 0.0 | 3.2 | 0.03 | 0.10 | 0.10 | 86 | 1012.7 |
| 20260509184536 | 13 | 334 | 0.0 | 3.2 | 0.03 | 0.10 | 0.10 | 85 | 1012.8 |
| 20260509183026 | 13 | 338 | 0.0 | 3.2 | 0.05 | 0.10 | 0.10 | 85 | 1013.0 |
| 20260509181507 | 13 | 302 | 1.6 | 4.8 | 0.03 | 0.08 | 0.08 | 84 | 1013.1 |
| 20260509180009 | 13 | 275 | 0.0 | 3.2 | 0.03 | 0.08 | 0.08 | 84 | 1013.2 |
| 20260509174508 | 13 | 309 | 0.0 | 6.4 | 0.03 | 0.08 | 0.08 | 81 | 1013.1 |
| 20260509173012 | 14 | 227 | 0.0 | 14.5 | 0.00 | 0.05 | 0.05 | 79 | 1013.1 |
| 20260509171512 | 14 | 273 | 1.6 | 8.0 | 0.00 | 0.05 | 0.05 | 79 | 1013.2 |
| 20260509170014 | 14 | 207 | 1.6 | 4.8 | 0.03 | 0.05 | 0.05 | 82 | 1013.1 |
| 20260509164515 | 13 | 180 | 1.6 | 3.2 | 0.05 | 0.05 | 0.05 | 84 | 1012.8 |
| 20260509163020 | 14 | 217 | 0.0 | 3.2 | 0.05 | 0.05 | 0.05 | 84 | 1012.8 |
| 20260509161518 | 14 | 265 | 1.6 | 4.8 | 0.05 | 0.05 | 0.05 | 82 | 1013.1 |
| 20260509160003 | 14 | 236 | 3.2 | 9.7 | 0.03 | 0.03 | 0.03 | 79 | 1013.3 |
| 20260509154502 | 15 | 236 | 4.8 | 12.9 | 0.00 | 0.00 | 0.00 | 79 | 1013.5 |
| 20260509153003 | 15 | 216 | 1.6 | 6.4 | 0.00 | 0.00 | 0.00 | 79 | 1013.6 |
| 20260509151503 | 15 | 211 | 0.0 | 0.0 | 0.00 | 0.00 | 0.00 | 77 | 1013.7 |
| 20260509150004 | 15 | 227 | 0.0 | 6.4 | 0.00 | 0.00 | 0.00 | 77 | 1013.7 |
| 20260509144502 | 15 | 233 | 1.6 | 3.2 | 0.00 | 0.00 | 0.00 | 77 | 1013.4 |
| 20260509143006 | 15 | 105 | 0.0 | 3.2 | 0.00 | 0.00 | 0.00 | 78 | 1013.1 |
| 20260509141503 | 14 | 179 | 0.0 | 3.2 | 0.00 | 0.00 | 0.00 | 77 | 1013.2 |
| 20260509140006 | 14 | 155 | 0.0 | 3.2 | 0.00 | 0.00 | 0.00 | 77 | 1013.1 |
| 20260509134505 | 13 | 84 | 1.6 | 4.8 | 0.00 | 0.00 | 0.00 | 77 | 1013.0 |
| 20260509133008 | 13 | 99 | 3.2 | 6.4 | 0.00 | 0.00 | 0.00 | 77 | 1013.0 |
| 20260509131510 | 13 | 94 | 1.6 | 3.2 | 0.00 | 0.00 | 0.00 | 77 | 1013.0 |
| 20260509130011 | 13 | 98 | 1.6 | 4.8 | 0.00 | 0.00 | 0.00 | 79 | 1012.9 |
| 20260509124510 | 13 | 101 | 3.2 | 4.8 | 0.00 | 0.00 | 0.00 | 80 | 1013.0 |
| 20260509123012 | 12 | 94 | 0.0 | 3.2 | 0.00 | 0.00 | 0.00 | 84 | 1013.0 |
| 20260509121515 | 12 | 81 | 0.0 | 3.2 | 0.00 | 0.00 | 0.00 | 86 | 1013.1 |
| 20260509120014 | 11 | 81 | 0.0 | 0.0 | 0.00 | 0.00 | 0.00 | 86 | 1013.2 |
| 20260509114517 | 11 | 81 | 0.0 | 0.0 | 0.00 | 0.00 | 0.00 | 88 | 1013.1 |
| 20260509113019 | 11 | 81 | 0.0 | 0.0 | 0.00 | 0.00 | 0.00 | 88 | 1013.1 |
| 20260509111534 | 10 | 65 | 0.0 | 1.6 | 0.00 | 0.00 | 0.00 | 88 | 1013.0 |
| 20260509110020 | 10 | 60 | 0.0 | 0.0 | 0.00 | 0.00 | 0.00 | 88 | 1012.9 |
| 20260509104528 | 10 | 72 | 1.6 | 3.2 | 0.00 | 0.00 | 0.00 | 88 | 1012.8 |
| 20260509103021 | 10 | 67 | 0.0 | 3.2 | 0.00 | 0.00 | 0.00 | 88 | 1012.7 |
| 20260509101529 | 10 | 67 | 0.0 | 3.2 | 0.00 | 0.00 | 0.00 | 88 | 1012.6 |
| 20260509100023 | 10 | 67 | 0.0 | 3.2 | 0.00 | 0.00 | 0.00 | 88 | 1012.4 |
| 20260509094528 | 10 | 86 | 1.6 | 3.2 | 0.00 | 0.00 | 0.00 | 88 | 1012.7 |
| 20260509093026 | 10 | 60 | 0.0 | 0.0 | 0.00 | 0.00 | 0.00 | 88 | 1012.8 |
| 20260509091533 | 9 | 60 | 0.0 | 3.2 | 0.00 | 0.00 | 0.00 | 88 | 1012.7 |
| 20260509090028 | 9 | 60 | 0.0 | 3.2 | 0.00 | 0.00 | 0.00 | 88 | 1012.8 |
| 20260509084526 | 9 | 26 | 0.0 | 0.0 | 0.00 | 0.00 | 0.00 | 88 | 1012.8 |
| 20260509083009 | 9 | 26 | 0.0 | 0.0 | 0.00 | 0.00 | 0.00 | 88 | 1013.0 |